Wind_Speed
25 26 26 26 26 25 25 25 24 24 23 23 23 24 25 26 26 26 27 27 27 28 28 28 28 29 29 28 28 28 28 28 27 27 28 27 27 27 27 26 26 27 26
24 24 26 26 25 25 25 24 24 24 24 24 24 24 24 25 25 26 27 28 28 28 28 28 28 29 29 29 29 29 29 29 28 27 28 28 27 27 27 26 26 26 25
24 24 25 24 24 25 24 24 24 24 24 24 24 24 24 24 25 25 26 27 28 28 29 29 29 29 29 29 29 29 28 28 28 28 28 28 27 27 27 26 26 25 24
24 24 23 23 22 23 24 23 23 23 24 24 24 24 24 24 24 25 25 26 26 27 27 28 28 28 29 29 29 28 28 27 27 27 27 27 27 27 27 25 24 24 23
22 21 21 21 22 22 23 23 23 23 23 24 25 24 24 24 24 25 25 25 25 25 25 26 26 26 28 29 29 28 28 27 26 25 25 26 26 26 25 23 23 22 22
20 20 21 21 22 22 23 24 23 23 22 23 23 23 23 23 24 24 24 24 24 24 25 25 25 26 26 26 26 26 26 26 25 24 24 24 23 23 22 22 21 20 19
21 21 21 21 21 22 22 22 22 22 22 22 22 22 22 22 22 23 23 23 23 23 23 24 24 24 24 24 24 24 23 23 23 22 22 22 22 21 20 20 19 19 18
20 20 20 21 21 20 20 20 20 20 20 20 21 20 20 20 21 21 21 21 21 21 22 22 22 23 22 22 21 22 22 21 21 20 21 21 21 20 20 19 19 18 17
18 18 18 18 18 18 19 19 19 19 18 18 18 18 18 18 18 18 19 19 19 20 20 20 21 21 21 20 20 20 20 20 20 19 19 19 18 18 17 17 17 16 15
16 16 16 16 16 17 16 16 16 16 16 17 16 16 15 16 16 17 17 17 17 17 17 17 17 18 18 18 18 19 18 18 18 18 17 17 16 16 16 16 15 15 14
13 13 13 13 13 13 13 13 13 13 13 13 13 13 13 14 14 15 15 15 15 15 15 14 14 14 15 15 16 17 17 16 16 16 16 16 16 15 15 14 14 13 13
11 11 10 10 10 10 10 11 11 11 11 11 11 11 12 12 12 12 12 12 12 12 12 12 12 12 12 12 13 14 14 14 15 15 15 15 14 14 14 13 13 12 12
9 8 8 8 9 10 10 10 9 9 9 9 9 9 9 10 10 10 10 10 9 8 8 9 10 10 10 10 10 11 12 13 13 13 14 14 14 13 13 12 11 11 10
8 8 8 9 10 10 9 9 8 7 7 7 7 7 8 7 7 7 6 6 5 5 4 5 6 7 8 9 10 11 12 13 13 13 13 13 12 12 11 11 10 9 9
9 9 9 10 10 9 9 9 9 8 7 5 5 5 5 5 4 4 3 3 2 2 1 2 4 5 6 8 9 10 11 12 12 12 12 12 12 11 11 10 9 8 7
10 10 10 10 9 9 10 10 9 8 7 5 4 4 4 3 3 3 2 2 2 3 3 3 5 5 6 7 8 8 9 11 11 11 11 12 11 10 10 9 8 7 7
11 10 10 10 10 10 9 8 8 8 7 6 6 5 4 5 5 5 5 5 5 4 4 5 5 5 6 6 7 7 9 9 10 11 12 11 11 10 9 8 7 6 6
11 10 10 10 10 10 10 9 8 8 7 7 7 7 6 6 7 7 7 7 6 5 5 6 6 5 6 6 7 8 8 9 10 11 11 10 10 9 8 8 7 6 5
11 11 10 10 10 10 10 9 9 8 7 7 7 8 8 7 7 7 7 7 7 7 7 7 7 7 7 8 8 9 8 9 10 10 9 9 9 8 7 6 6 5 5
13 12 11 11 10 10 10 9 9 9 8 7 7 7 7 7 7 7 7 7 7 7 7 7 7 7 7 7 8 8 8 9 9 9 8 8 7 7 6 5 5 4 4
14 13 12 12 11 10 9 9 9 9 8 8 7 7 7 7 8 8 7 7 7 7 7 7 7 7 7 7 7 7 7 8 8 7 7 7 6 6 5 5 4 4 4
14 13 13 12 11 10 9 9 8 8 8 8 8 7 7 7 7 8 8 7 8 7 7 6 6 6 7 7 6 6 7 7 7 7 6 6 6 5 4 4 4 4 5
14 13 12 11 10 10 10 9 8 8 7 7 7 6 6 6 6 6 7 7 7 6 6 6 6 6 6 6 6 6 5 5 5 6 6 5 5 5 4 4 5 6 7
14 13 13 12 10 9 8 7 6 6 5 5 5 5 5 4 4 5 5 5 5 5 5 5 5 5 5 5 5 4 4 4 5 6 5 5 5 5 6 7 8 9 11
13 13 12 12 10 9 8 7 6 5 4 5 5 4 4 3 3 3 2 2 2 2 2 2 2 2 3 3 4 5 5 5 6 6 7 7 8 8 9 10 12 13 15
13 13 12 11 10 9 8 7 6 5 4 4 4 3 3 2 2 1 1 1 1 1 2 3 3 4 5 5 6 6 7 8 8 9 10 10 11 12 13 14 16 17 18
Wind_Direction
287 284 281 281 280 280 280 278 276 274 272 271 270 267 265 263 262 261 260 260 260 260 259 259 258 256 256 257 257 258 259 260 260 260 261 263 263 263 264 266 266 266 266
288 285 282 280 279 280 281 279 276 274 273 274 274 271 268 266 264 263 263 262 262 260 259 259 258 258 257 256 257 257 259 259 259 259 259 261 262 262 263 264 265 264 265
287 284 282 282 280 279 279 278 277 276 275 275 275 273 271 270 268 267 266 265 263 261 260 259 259 258 258 257 257 257 257 258 258 258 258 259 259 261 261 262 263 262 263
286 282 280 280 280 279 278 276 275 275 275 275 273 272 271 271 271 269 269 267 264 262 261 260 260 258 258 257 256 256 257 257 258 257 257 256 256 258 260 261 262 263 263
287 283 280 278 278 278 278 277 276 276 276 275 272 271 271 271 271 271 269 267 265 264 262 262 260 260 259 257 255 255 255 255 256 257 256 255 254 257 258 259 260 261 260
288 284 281 279 277 276 278 278 276 275 274 274 273 273 273 272 272 272 269 267 266 266 266 263 262 261 259 256 253 253 253 253 253 255 255 254 253 253 253 254 256 256 256
287 285 282 282 280 280 279 276 276 275 274 275 276 275 273 271 270 271 271 268 267 267 266 265 262 260 257 255 252 251 250 249 249 250 250 250 249 248 247 247 249 250 250
288 288 287 287 284 282 279 277 277 277 278 278 278 276 274 273 271 271 271 268 267 266 266 264 262 259 256 253 251 248 246 246 244 245 245 244 243 242 243 244 244 246 248
291 291 291 290 287 285 282 281 281 280 280 281 278 277 275 273 273 274 273 272 270 267 266 265 261 258 255 251 247 245 244 242 241 241 239 238 238 237 238 239 241 243 245
298 294 293 293 290 288 286 285 286 284 282 281 280 279 276 274 276 278 280 277 274 270 267 265 260 256 254 249 245 241 239 237 236 234 231 230 230 230 233 236 238 238 240
309 305 302 300 299 296 293 290 289 288 286 283 282 280 278 279 280 280 282 278 274 272 268 263 257 253 250 246 240 235 232 228 226 224 222 221 222 225 228 230 231 235 239
318 316 312 308 309 309 305 302 301 297 293 289 285 285 284 284 284 283 284 280 277 273 267 259 253 248 246 242 232 225 223 217 214 214 214 215 216 219 224 226 228 233 236
334 332 328 323 324 323 319 317 313 308 305 297 292 293 292 290 287 285 285 284 280 274 265 258 248 240 236 228 220 217 213 206 204 206 208 210 212 216 218 221 225 227 229
353 350 346 342 340 339 340 338 332 325 318 311 305 301 298 295 291 293 291 286 280 272 267 254 237 224 218 211 208 206 203 199 200 200 200 202 206 208 212 217 219 220 220
0 355 354 354 354 353 350 349 343 336 333 330 327 323 318 312 310 316 311 295 272 257 221 202 194 192 194 194 194 197 198 195 193 194 194 193 194 195 199 204 208 212 218
8 7 4 3 1 356 354 356 1 2 5 7 5 4 6 11 19 26 31 59 108 113 117 141 158 166 170 174 177 184 187 188 188 189 188 188 190 193 196 200 204 208 216
16 13 10 10 10 9 9 11 16 21 28 36 37 39 49 54 62 71 71 83 100 109 117 123 132 146 159 167 173 179 180 183 186 188 187 189 190 190 189 191 195 201 210
18 17 17 19 21 21 23 27 30 37 46 51 51 57 71 77 76 74 76 83 92 105 118 125 126 134 145 148 150 155 160 164 170 174 174 176 179 180 181 184 191 200 211
27 26 26 28 28 28 29 34 42 50 55 57 62 69 79 80 76 74 79 84 88 97 111 120 123 127 132 135 137 138 142 148 155 159 162 167 171 174 175 180 188 199 210
32 31 30 31 32 34 39 43 47 53 57 63 70 74 75 75 74 74 82 89 93 98 106 116 120 123 130 134 140 143 145 147 151 156 158 163 171 177 184 190 194 203 220
31 32 33 36 38 41 45 48 52 55 57 64 70 72 71 74 75 76 81 89 96 101 106 113 118 120 128 137 144 147 149 152 156 158 161 168 176 181 186 198 206 222 245
29 31 32 35 38 42 45 50 55 56 57 62 68 71 73 74 73 74 80 87 96 102 107 114 115 112 121 131 134 142 147 153 157 159 165 172 178 189 202 217 232 247 262
29 29 30 32 37 42 46 51 54 54 55 56 59 63 66 70 72 75 81 89 96 103 108 113 117 119 124 132 136 140 149 156 161 166 175 188 201 215 229 244 256 266 277
28 28 27 28 30 33 38 43 46 45 43 46 50 56 64 69 74 78 80 86 93 104 112 121 127 133 142 151 157 164 178 190 193 196 204 217 230 244 256 265 274 281 288
24 24 22 21 22 25 28 31 33 31 30 32 37 42 48 56 67 76 79 83 92 109 134 156 168 183 196 202 209 216 219 220 221 226 235 245 255 263 269 275 281 287 291
16 18 20 20 21 21 23 23 21 20 19 18 17 16 19 24 26 25 353 313 262 243 240 239 244 252 254 250 247 245 244 245 247 251 255 260 267 272 277 281 286 290 292
Height
5790 5788 5787 5785 5784 5783 5782 5781 5780 5779 5778 5778 5777 5777 5776 5776 5776 5776 5776 5777 5777 5777 5778 5778 5779 5780 5781 5781 5782 5783 5784 5785 5786 5786 5786 5786 5786 5786 5786 5786 5786 5786 5786
5782 5781 5779 5778 5776 5775 5774 5773 5772 5772 5771 5770 5770 5769 5768 5768 5768 5767 5767 5768 5768 5768 5769 5769 5770 5770 5772 5773 5774 5774 5775 5776 5777 5777 5777 5778 5778 5778 5778 5779 5779 5779 5779
5775 5773 5771 5770 5769 5768 5767 5766 5765 5764 5764 5763 5762 5761 5761 5760 5759 5759 5759 5759 5759 5759 5759 5760 5761 5761 5762 5763 5765 5766 5766 5767 5768 5769 5769 5770 5770 5771 5771 5771 5772 5772 5772
5767 5765 5764 5763 5761 5760 5759 5758 5758 5757 5756 5755 5754 5754 5753 5752 5752 5751 5751 5750 5750 5750 5750 5751 5751 5752 5753 5754 5755 5757 5758 5758 5759 5760 5761 5761 5762 5763 5763 5764 5765 5765 5765
5760 5758 5757 5755 5754 5753 5752 5751 5750 5749 5748 5748 5747 5746 5745 5744 5744 5743 5743 5742 5742 5742 5742 5742 5743 5743 5744 5745 5746 5748 5749 5750 5751 5752 5753 5754 5755 5755 5756 5757 5758 5758 5759
5753 5752 5750 5749 5748 5746 5745 5744 5743 5742 5741 5740 5740 5739 5738 5737 5736 5735 5735 5734 5734 5734 5734 5734 5734 5735 5735 5736 5737 5739 5740 5742 5743 5745 5746 5747 5748 5749 5750 5751 5752 5753 5754
5747 5746 5744 5742 5741 5739 5738 5737 5736 5735 5734 5733 5732 5731 5730 5729 5729 5728 5727 5727 5726 5726 5726 5726 5726 5727 5727 5728 5730 5731 5732 5734 5736 5737 5739 5740 5741 5743 5744 5745 5747 5748 5749
5741 5739 5738 5736 5734 5733 5731 5730 5729 5728 5727 5726 5725 5724 5723 5723 5722 5721 5720 5720 5719 5719 5718 5718 5718 5719 5720 5721 5722 5724 5725 5727 5729 5731 5732 5734 5735 5737 5739 5740 5741 5743 5744
5736 5734 5732 5730 5728 5727 5725 5724 5723 5722 5721 5720 5719 5718 5717 5716 5715 5714 5713 5713 5712 5712 5711 5711 5711 5712 5713 5714 5715 5717 5719 5721 5723 5724 5726 5728 5730 5732 5734 5736 5737 5739 5740
5731 5729 5727 5725 5723 5722 5720 5719 5717 5716 5715 5714 5713 5712 5711 5710 5709 5708 5708 5707 5706 5706 5705 5705 5705 5706 5707 5708 5709 5711 5713 5715 5717 5719 5722 5724 5726 5728 5730 5732 5733 5735 5736
5727 5725 5723 5721 5719 5718 5716 5714 5713 5712 5710 5709 5708 5707 5706 5706 5705 5704 5703 5701 5701 5700 5700 5700 5701 5701 5702 5703 5705 5707 5709 5711 5713 5716 5718 5720 5723 5725 5727 5728 5730 5732 5733
5725 5722 5721 5719 5717 5715 5713 5711 5709 5708 5706 5705 5704 5703 5702 5702 5701 5700 5698 5697 5697 5696 5696 5696 5697 5697 5698 5700 5701 5703 5705 5707 5710 5713 5715 5718 5720 5722 5724 5726 5727 5729 5730
5723 5721 5719 5717 5715 5713 5711 5708 5707 5705 5704 5702 5701 5700 5699 5698 5697 5696 5695 5694 5693 5693 5693 5693 5694 5694 5695 5697 5699 5700 5703 5705 5708 5710 5713 5716 5718 5720 5722 5724 5725 5726 5728
5722 5720 5718 5716 5714 5711 5709 5707 5705 5703 5702 5700 5699 5698 5697 5696 5695 5694 5693 5692 5692 5691 5691 5691 5692 5693 5694 5695 5697 5699 5701 5704 5706 5709 5711 5714 5716 5718 5720 5722 5723 5725 5726
5722 5720 5717 5715 5713 5710 5708 5706 5704 5702 5700 5699 5698 5697 5696 5695 5694 5693 5692 5691 5691 5691 5691 5691 5692 5693 5694 5695 5697 5699 5701 5703 5705 5708 5710 5712 5714 5716 5719 5720 5722 5723 5724
5722 5719 5717 5715 5712 5710 5708 5706 5703 5702 5700 5698 5697 5696 5695 5694 5693 5693 5692 5691 5691 5691 5692 5692 5693 5693 5694 5695 5697 5698 5700 5703 5705 5707 5709 5712 5714 5716 5718 5720 5721 5722 5723
5722 5720 5717 5715 5713 5710 5708 5706 5704 5703 5701 5700 5698 5697 5696 5696 5695 5694 5693 5693 5693 5693 5693 5693 5694 5694 5695 5697 5698 5699 5701 5703 5705 5707 5709 5712 5714 5716 5717 5719 5720 5721 5722
5723 5721 5718 5716 5714 5711 5709 5707 5705 5704 5703 5702 5701 5699 5698 5698 5697 5696 5695 5695 5695 5694 5695 5695 5696 5696 5697 5698 5699 5700 5702 5703 5705 5707 5710 5712 5713 5715 5717 5718 5720 5721 5721
5725 5722 5720 5717 5715 5713 5711 5709 5707 5706 5705 5704 5703 5702 5701 5701 5700 5699 5698 5698 5697 5697 5697 5697 5698 5698 5699 5700 5701 5702 5704 5705 5707 5709 5711 5712 5714 5716 5717 5718 5719 5720 5720
5726 5724 5721 5719 5717 5715 5713 5712 5710 5709 5708 5706 5706 5705 5704 5703 5702 5702 5701 5700 5700 5700 5700 5700 5700 5701 5702 5702 5703 5704 5706 5707 5709 5710 5712 5713 5715 5716 5717 5718 5719 5719 5720
5729 5726 5724 5721 5719 5717 5716 5714 5713 5712 5711 5709 5708 5708 5707 5706 5705 5704 5704 5703 5702 5702 5702 5703 5703 5703 5704 5705 5706 5707 5707 5709 5710 5711 5713 5714 5715 5716 5717 5718 5718 5718 5719
5731 5729 5726 5724 5722 5720 5718 5717 5716 5715 5714 5713 5712 5711 5710 5709 5708 5707 5706 5706 5705 5705 5705 5705 5706 5706 5707 5707 5708 5709 5710 5710 5711 5712 5713 5714 5715 5716 5716 5717 5717 5717 5717
5734 5731 5729 5727 5725 5723 5721 5720 5719 5718 5717 5716 5715 5714 5713 5712 5711 5710 5709 5709 5708 5708 5708 5708 5708 5709 5709 5709 5710 5711 5711 5712 5712 5713 5714 5715 5715 5716 5716 5716 5716 5715 5715
5736 5734 5731 5729 5727 5725 5724 5722 5721 5720 5719 5718 5717 5716 5715 5714 5713 5713 5712 5711 5711 5711 5711 5711 5711 5711 5711 5711 5712 5712 5712 5712 5713 5713 5714 5714 5714 5714 5714 5714 5714 5713 5712
5738 5736 5734 5731 5729 5728 5726 5725 5723 5722 5721 5720 5719 5718 5717 5716 5715 5715 5714 5714 5713 5713 5713 5712 5712 5712 5712 5712 5712 5712 5712 5712 5713 5713 5713 5713 5713 5712 5712 5711 5710 5709 5707
5740 5738 5735 5733 5731 5730 5728 5726 5725 5724 5723 5722 5721 5720 5719 5718 5717 5716 5715 5715 5714 5714 5713 5713 5713 5712 5712 5712 5712 5711 5711 5711 5711 5711 5710 5710 5710 5709 5708 5707 5706 5704 5702